Volver al catálogo

SL-8 R/B

ActivoLEO
NORAD 11883·ROCKET BODY·🇷🇺 Russia

Lanzado Jul 9, 1980 desde Plesetsk Cosmodrome

Loading…

Próximos Pases (próximas 24 horas)

TLE

ActualizadoSource: Space-Track

Época: Sep 14, 2026, 05:08 UTC

1 11883U 80058J   26257.21457368 -.00000044  00000-0 -25174-3 0  9992
2 11883  74.0111 180.1016 0134030 281.1397 249.0613 12.24006628 63494

Sigue SL-8 R/B en tiempo real con AllMySat

Download on the App Store